Theta_e
316 316 316 315 316 315 315 315 315 315 315 314 314 315 315 315 314 308 301 307 311 319 320 311 310 305 299 295 296 296 286 283 286 289 290 297 296 303 306 302 304 334 335 336 341
316 316 315 315 315 316 315 315 314 314 314 314 314 315 314 315 306 302 311 317 319 321 313 306 302 301 294 292 293 291 285 288 293 294 292 296 296 299 301 302 301 329 336 339 340
315 315 315 314 314 314 313 313 313 314 314 313 314 313 314 314 299 298 317 322 321 320 317 311 305 299 291 290 291 290 289 292 294 296 297 297 296 299 298 298 302 319 332 337 338
314 315 314 313 312 312 312 312 312 313 314 313 313 312 314 307 286 300 330 326 328 318 314 310 303 295 291 290 292 287 291 294 293 297 295 296 300 298 298 299 304 307 334 336 335
314 314 313 312 312 312 312 312 312 312 312 312 313 313 308 298 297 308 319 314 324 315 310 308 298 294 290 289 291 288 292 295 296 295 295 297 297 299 299 302 304 309 332 334 335
313 313 312 312 311 312 312 312 312 312 311 311 312 313 303 291 305 307 308 308 317 312 309 307 303 298 293 292 291 292 293 295 295 295 294 294 296 298 301 303 303 326 332 335 334
312 312 312 311 311 311 312 311 311 312 311 311 312 309 301 296 307 307 307 303 305 313 309 312 307 302 297 291 295 293 290 292 292 293 292 295 293 295 301 301 301 320 326 329 332
311 311 310 310 310 310 311 311 311 311 312 312 313 307 295 307 308 306 306 303 305 305 304 313 311 301 294 296 297 290 288 286 290 293 294 295 289 296 300 300 299 306 323 326 326
310 310 309 309 309 310 310 310 311 311 311 311 306 303 294 310 305 307 307 302 304 305 305 313 307 299 297 291 287 288 284 284 289 293 294 292 288 297 299 299 299 299 310 322 323
310 310 310 309 310 310 309 309 308 308 308 308 306 298 300 298 307 309 310 306 302 303 301 302 298 294 293 289 282 285 284 287 288 291 291 289 288 294 297 298 299 298 298 313 321
309 309 309 310 310 309 306 300 291 290 296 295 297 297 300 306 310 308 311 304 303 302 293 299 293 289 292 293 294 293 290 288 289 294 291 288 289 292 294 295 296 298 297 298 320
308 308 309 309 310 309 304 296 294 296 289 298 299 299 303 304 297 301 310 301 298 295 298 295 290 296 298 297 295 294 290 287 291 294 290 289 289 292 293 293 296 298 299 298 299
308 308 309 309 308 300 293 295 302 298 287 292 297 297 299 302 297 298 302 300 297 295 296 293 296 301 298 296 294 293 290 288 289 292 292 290 288 290 294 294 296 297 299 300 299
308 308 308 308 299 295 294 298 298 297 284 287 294 298 300 302 297 305 305 299 297 294 296 296 301 298 296 294 295 290 295 293 292 288 282 290 281 287 291 293 295 295 295 298 299
308 308 308 308 300 295 297 296 297 294 270 288 294 308 303 298 299 302 306 300 294 295 298 294 296 296 294 295 297 293 298 294 293 288 284 286 283 287 290 292 296 299 300 297 298
308 308 307 302 299 298 299 297 294 282 273 286 293 293 293 296 297 303 300 303 302 299 298 297 302 300 298 300 300 299 295 293 291 285 279 284 284 284 287 291 296 301 303 306 308
308 308 305 303 294 298 297 294 280 275 288 285 287 292 291 291 296 298 296 294 292 289 290 295 297 300 302 296 299 297 290 280 277 276 277 286 284 285 297 301 300 300 304 309 310
306 305 301 300 299 299 298 289 276 282 284 291 291 291 288 292 293 295 295 292 297 296 291 289 287 297 301 297 292 293 288 278 275 276 279 287 282 290 301 303 306 308 309 310 310
305 296 295 297 300 300 294 282 281 286 289 288 290 286 287 291 292 292 289 292 295 297 291 289 290 300 301 300 299 293 288 289 284 285 282 289 294 298 303 302 305 306 308 308 309
297 291 292 298 301 297 289 284 287 292 293 292 284 287 283 287 289 291 290 296 294 298 299 295 286 296 299 301 300 294 294 284 284 279 277 287 289 289 296 299 302 303 305 307 309
292 287 294 300 299 291 283 285 288 293 293 290 287 286 288 287 289 290 291 297 300 299 300 298 292 292 297 294 292 293 289 288 288 286 280 280 288 299 298 299 301 301 302 303 305
291 282 295 298 286 285 285 287 291 292 294 291 292 289 286 289 288 289 291 296 302 302 294 299 292 287 291 297 299 295 289 288 283 285 286 284 287 301 301 302 303 303 303 303 303
290 290 296 294 282 283 288 288 291 290 291 288 289 292 293 290 286 290 294 301 302 300 297 299 293 283 287 293 297 293 294 290 291 291 286 282 288 301 304 303 305 302 303 302 300
291 284 287 288 291 287 285 286 287 294 292 294 291 293 287 290 291 291 293 300 302 301 304 303 294 286 282 289 292 291 292 294 292 286 287 287 292 299 300 301 304 302 299 299 300
292 283 291 285 287 287 287 288 286 286 292 294 292 291 290 287 291 291 296 298 301 300 300 300 289 291 296 298 297 294 293 294 291 291 288 292 293 297 300 301 303 300 299 299 298
290 289 292 288 289 287 288 286 287 288 290 290 288 291 293 289 290 288 292 293 295 299 296 297 292 292 292 297 297 295 295 295 295 296 295 296 296 304 302 303 300 299 298 296 296
297 298 292 289 288 286 286 287 288 290 291 292 292 291 290 293 295 296 296 297 296 293 293 293 292 288 287 295 295 289 294 296 296 298 297 292 297 303 300 299 296 296 295 294 295
Wind_Speed
17 17 17 17 17 17 18 18 18 17 16 17 17 15 16 18 20 12 14 16 14 24 6 1 1 4 2 3 4 4 2 5 6 8 7 4 2 1 2 7 5 5 5 2 17
17 18 18 18 18 18 18 19 19 18 17 17 16 15 16 18 15 17 18 17 19 9 8 11 6 7 4 5 4 5 6 9 7 6 3 5 3 3 5 11 4 4 9 13 13
18 18 18 19 21 20 21 21 20 19 17 17 16 15 14 13 7 10 9 10 19 19 4 4 4 6 5 5 6 7 9 5 5 4 7 6 6 5 5 11 2 4 10 11 8
18 18 19 21 21 21 22 22 21 21 18 18 16 13 13 3 8 2 6 16 10 16 10 5 6 6 7 9 8 6 6 6 4 5 4 3 4 7 9 10 6 5 18 17 15
19 19 19 21 22 22 23 22 21 20 20 18 16 14 6 7 18 8 18 11 4 15 19 9 8 7 9 5 4 5 4 6 7 7 8 9 13 12 20 8 9 7 15 20 16
19 20 21 22 23 23 23 23 22 21 22 20 15 13 7 20 10 7 4 6 9 14 14 11 10 8 6 5 9 6 13 15 6 10 6 6 9 7 11 9 10 8 10 14 12
19 20 21 23 24 23 23 24 24 24 24 22 17 10 15 26 8 6 4 3 2 6 13 17 7 10 7 3 10 6 8 6 6 7 8 7 14 23 7 6 8 8 9 11 11
20 21 23 25 25 25 26 27 29 28 27 23 18 11 17 7 20 30 23 23 20 14 12 10 12 4 3 4 7 5 5 11 4 8 9 11 18 11 8 10 11 9 6 10 11
22 22 24 27 27 27 25 29 34 32 25 15 8 8 15 6 15 17 21 17 14 15 12 10 8 7 3 3 5 4 3 4 4 11 8 11 3 10 8 9 8 8 8 8 6
23 22 23 26 28 27 27 30 31 17 4 6 4 7 9 13 6 5 5 18 8 12 8 12 6 7 8 10 13 5 4 5 7 4 7 7 5 10 7 8 10 9 8 9 9
25 24 24 25 28 27 22 10 7 2 2 6 8 16 15 9 8 4 5 15 7 9 15 15 12 24 21 17 7 6 6 5 5 7 6 6 5 11 10 6 6 8 7 8 11
27 27 27 25 27 27 11 3 6 1 14 14 25 33 30 29 24 23 16 8 9 13 16 10 29 16 15 15 16 15 11 5 4 5 3 7 9 10 7 6 8 10 8 10 5
27 27 28 26 29 8 2 7 5 6 6 10 19 15 12 21 36 37 25 14 7 14 25 24 5 18 17 20 19 17 14 6 6 4 2 2 9 5 8 5 5 7 8 5 13
28 29 27 28 9 3 8 4 4 2 6 11 6 7 7 8 8 23 29 21 15 19 18 17 21 24 25 22 16 20 10 8 9 2 3 4 6 7 6 6 1 8 7 10 9
30 31 28 25 8 4 7 3 6 2 5 5 4 4 6 8 13 5 8 26 22 18 17 15 20 21 24 24 15 12 12 10 9 5 0 2 3 9 3 4 3 4 7 8 6
32 33 32 5 3 11 5 8 0 1 9 6 1 17 19 10 18 2 4 11 3 16 21 17 16 21 14 17 19 7 7 7 3 5 5 6 7 8 2 5 3 4 9 10 8
33 34 24 4 6 1 2 3 2 5 8 4 12 15 19 8 9 1 9 13 11 11 13 20 18 17 20 16 14 15 10 3 2 4 6 10 5 3 8 8 4 8 8 9 10
35 31 6 7 7 1 1 4 5 6 10 14 10 19 10 7 7 7 8 9 2 4 8 13 19 17 16 16 8 18 10 7 6 6 5 7 6 2 4 3 8 12 10 10 13
28 6 6 6 6 4 1 3 2 5 8 11 17 7 5 5 4 5 0 2 6 7 4 8 6 16 14 8 20 11 15 10 5 1 6 6 3 4 5 10 12 13 13 11 11
10 5 6 7 3 2 2 6 5 8 9 7 7 5 4 5 4 2 4 7 4 9 4 4 4 8 23 18 13 10 11 7 2 4 4 1 4 6 2 7 9 11 12 11 11
3 5 5 14 3 4 4 6 13 13 16 4 7 8 7 4 4 2 6 7 9 10 10 5 2 3 7 7 22 9 8 5 8 3 7 5 2 4 4 4 13 10 7 7 10
4 5 5 8 7 3 6 15 17 13 8 8 8 12 7 6 3 3 6 3 7 12 7 8 3 3 5 5 13 6 6 7 6 4 3 5 2 1 4 3 6 10 10 8 11
7 4 5 5 7 9 9 16 7 12 11 4 4 3 3 5 5 8 4 7 8 10 11 12 4 5 4 4 1 5 5 6 6 4 5 7 4 3 6 5 6 13 12 13 13
4 6 5 4 4 13 17 8 19 17 10 6 6 7 6 3 6 4 4 6 6 2 14 9 3 4 5 7 5 5 6 11 8 5 6 3 10 8 9 9 7 8 11 14 14
4 3 1 7 10 15 15 9 20 15 5 9 4 18 13 4 4 3 5 4 5 4 5 3 4 1 6 7 4 4 12 10 7 9 8 9 13 16 12 8 6 12 14 16 13
3 4 3 8 10 17 8 10 17 21 7 10 12 19 11 5 6 6 10 5 4 3 4 5 3 1 5 7 7 5 7 13 5 7 11 18 10 9 8 7 12 14 15 15 13
1 3 4 6 7 10 8 14 23 20 11 12 18 16 8 6 10 11 8 9 3 4 3 4 3 4 1 4 6 4 3 6 5 2 21 8 10 17 13 14 12 15 15 14 13
Wind_Direction
337 337 333 329 326 327 324 322 317 315 313 312 312 314 316 313 307 296 252 224 193 238 258 343 117 158 132 223 213 131 204 223 211 173 233 242 138 140 281 264 5 358 254 129 149
332 329 329 326 325 323 320 319 315 312 314 311 309 316 317 313 301 265 244 231 228 238 186 190 189 141 176 205 211 169 203 212 199 197 256 266 309 322 292 301 347 41 70 120 161
333 332 333 333 330 326 321 320 316 310 309 311 309 310 312 320 319 246 258 206 223 215 186 186 136 146 197 162 202 207 234 208 248 200 219 254 292 233 257 282 269 163 167 164 188
334 333 333 333 330 327 324 320 318 313 308 308 304 303 306 325 280 159 203 336 307 184 210 167 154 168 201 205 213 229 206 213 247 215 254 245 257 275 211 243 238 214 187 183 186
331 328 329 329 327 323 319 315 312 309 304 302 298 297 308 236 247 293 308 344 108 157 190 184 150 158 183 205 224 227 242 219 223 248 247 264 264 273 264 256 274 271 180 194 197
335 332 329 326 322 318 314 309 305 301 296 294 288 281 245 251 276 257 257 315 174 161 184 193 196 174 199 236 196 217 206 237 235 254 250 254 265 228 274 214 239 177 170 200 202
338 334 329 324 319 317 313 309 303 296 294 290 282 260 246 237 241 259 204 205 50 206 180 205 209 173 158 281 219 249 274 279 231 226 232 205 265 253 253 197 216 211 176 168 188
337 334 330 325 322 320 316 310 300 293 293 283 264 252 256 237 251 249 254 266 268 275 263 237 205 222 168 317 335 187 159 250 211 193 240 164 253 280 232 195 219 211 204 170 181
337 333 329 323 320 318 314 308 299 301 289 264 228 208 264 276 241 247 222 219 230 223 220 241 158 201 192 174 320 283 201 183 266 194 215 177 145 256 196 176 197 197 198 207 186
333 329 323 318 314 314 316 311 299 305 66 149 229 208 258 242 237 225 199 197 218 176 178 208 200 185 202 185 209 208 193 221 211 229 212 241 217 268 258 219 214 213 201 192 196
330 327 320 317 312 315 322 326 5 2 303 209 213 235 282 243 270 188 131 153 222 180 180 183 198 207 195 200 183 217 225 210 190 239 199 243 230 255 257 240 232 224 196 210 194
326 323 318 318 313 313 311 254 227 147 295 243 246 250 246 243 267 248 143 162 191 191 176 167 219 200 198 197 205 228 237 213 269 264 172 278 268 257 260 231 211 224 206 199 228
323 319 317 321 316 327 237 242 267 336 266 260 232 245 238 215 239 254 224 224 190 193 198 200 210 190 199 198 201 212 215 166 199 12 278 0 306 296 274 220 214 244 242 198 184
322 319 321 328 325 282 285 257 348 338 283 278 239 262 175 198 244 241 224 211 214 203 193 222 233 186 192 212 190 213 175 192 233 119 215 115 272 304 260 230 206 249 245 244 177
322 319 323 324 293 269 246 291 314 86 301 284 206 138 156 167 285 317 203 191 206 193 192 199 182 209 203 201 200 209 177 194 222 174 325 244 46 270 301 115 205 251 270 278 288
322 321 325 325 253 240 294 320 34 238 251 269 329 354 343 350 321 359 114 163 232 207 199 207 182 204 210 203 200 136 159 199 165 114 241 204 155 281 356 313 202 84 32 23 6
324 321 320 257 239 252 360 336 238 212 313 309 346 336 317 331 4 358 171 198 165 183 194 196 217 192 187 187 190 177 153 172 195 192 211 157 147 237 308 303 310 98 53 27 30
326 320 291 238 255 272 291 240 205 266 267 338 349 319 275 27 33 27 335 177 252 200 157 193 206 207 186 201 168 190 152 162 169 152 160 141 199 247 309 360 67 80 83 62 61
327 322 307 269 292 108 319 278 326 331 326 323 320 301 330 17 288 33 202 223 212 178 161 156 243 191 212 187 169 185 197 199 68 288 107 145 114 106 48 51 61 71 74 70 73
325 338 283 304 5 65 11 306 288 296 290 281 294 249 277 300 302 172 246 197 194 230 177 174 161 229 203 215 236 165 166 174 114 177 125 156 127 148 100 90 87 83 88 86 84
352 350 269 335 71 26 358 288 299 298 297 279 280 284 259 293 280 283 282 144 194 184 185 198 143 226 185 154 206 202 184 162 133 145 147 132 188 167 169 153 129 121 101 100 91
335 336 315 348 32 334 325 309 302 297 321 278 260 248 265 290 281 295 244 227 176 148 198 188 164 129 156 110 172 144 198 156 151 212 54 116 235 96 153 132 135 121 117 105 94
335 287 315 36 5 345 319 316 290 311 319 305 300 332 322 273 230 223 247 275 153 175 183 171 212 97 85 74 119 149 187 134 112 107 173 117 188 153 134 139 116 123 121 107 96
340 328 322 19 342 333 326 322 334 329 312 310 247 318 273 261 217 305 276 35 178 145 211 134 94 142 152 149 146 155 153 172 133 116 152 148 143 171 178 159 127 119 113 110 108
25 309 326 313 337 322 324 306 331 343 333 321 304 354 1 10 29 289 355 7 79 110 350 97 127 99 100 84 136 150 148 152 133 147 132 173 154 181 156 148 131 124 113 106 99
350 322 306 286 295 326 341 332 324 329 311 324 332 331 333 21 343 320 344 344 7 86 20 360 89 58 32 41 43 71 165 156 111 114 78 118 87 127 113 114 118 113 109 102 98
322 270 261 292 313 322 330 323 321 322 305 308 319 316 307 344 313 290 266 285 285 359 36 53 51 74 290 16 360 82 334 106 98 141 138 145 156 128 117 90 95 99 96 90 83